Location: Caltech
(34.1382°N, 118.1253°W)
Time: 21:01:13
(UTC-07:00)

Iridium 21 - Visible Passes

Search period start: 30 May 2016 00:00
Search period end: 09 June 2016 00:00
Orbit: 776 x 779 km, 86.4° (Epoch: 30 May)

Date Brightness Start Highest point End Pass type
(mag) Time Alt. Az. Time Alt. Az. Time Alt. Az.
30 May 6.4 20:51:33 10° NNE 20:56:09 31° E 20:59:41 15° SE visible
30 May 7.5 22:32:33 10° NNW 22:36:39 24° W 22:40:11 12° SW visible
31 May 6.4 21:58:22 10° NNW 22:03:20 46° W 22:07:09 16° SSW visible
01 Jun 5.5 21:24:39 10° N 21:29:53 90° WSW 21:34:08 16° S visible
02 Jun 5.9 20:51:19 10° NNE 20:56:20 46° E 21:01:10 11° SSE visible
02 Jun 8.0 22:33:29 10° NW 22:36:34 16° W 22:39:40 10° WSW visible
03 Jun 7.2 21:58:48 10° NNW 22:03:20 31° W 22:07:50 10° SW visible
04 Jun 6.0 21:24:49 10° N 21:29:57 60° W 21:35:04 10° SSW visible
05 Jun 5.5 20:51:15 10° N 20:56:28 70° E 21:01:39 10° S visible
05 Jun 8.4 22:35:42 10° WNW 22:36:27 10° WNW 22:37:14 10° W visible
06 Jun 7.8 21:59:27 10° NW 22:03:16 21° W 22:07:05 10° SW visible
07 Jun 6.8 21:25:08 10° NNW 21:29:58 40° W 21:34:48 10° SSW visible
08 Jun 5.7 20:51:19 10° N 20:56:33 79° W 21:01:45 10° S visible
